Regional Weather Roundup
Issued by NWS Wakefield, VA

Home | Current Version | Previous Version | Text Only | Print | Product List | Glossary On
Versions: 1 2 3 4 5 6 7 8 9 10 11 12 13 14 15 16 17 18 19 20 21 22 23 24 25 26 27 28 29 30 31 32 33 34 35 36 37 38 39 40 41 42 43 44 45 46 47 48 49 50
000
ASUS41 KAKQ 110615
RWRAKQ

REGIONAL WEATHER ROUNDUP
NATIONAL WEATHER SERVICE WAKEFIELD VA
100 AM EST MON DEC 11 2017

Note: "fair" indicates few or no clouds below 12,000 feet with no
significant weather and/or obstructions to visibility. * = Denotes
station may not report precipitation (e.g., rain,snow,etc.),
thunder or fog.

VAZ042-051-052>054-056-110700-
NORTHERN VIRGINIA

CITY           SKY/WX    TMP DP  RH WIND       PRES   REMARKS
WASH NATIONAL  CLOUDY    37  28  70 SW8       30.06F
DULLES         CLOUDY    34  26  72 S6        30.02F
FORT BELVOIR   CLOUDY    37  25  63 CALM      30.06S
QUANTICO       CLOUDY    38  28  67 SW3       30.07S
FREDERICKSBRG* CLOUDY    36  29  73 S3        30.04F
STAFFORD*      CLOUDY    34  27  74 CALM      30.08F
WARRENTON      CLOUDY    36  23  58 S3        30.02F
CULPEPER*      CLOUDY    36  24  61 S3        30.04F
MANASSAS*      CLOUDY    33  28  81 S5        30.04F
LEESBURG*      CLOUDY    34  30  86 S5        30.02F
WINCHESTER     MOCLDY    32  19  59 SW3       29.99F
FRONT ROYAL*   CLOUDY    34  21  60 CALM      29.98F
LURAY*         PTCLDY    32  23  69 S3        29.98F
$$

VAZ048-049-060>072-079>083-110700-
CENTRAL AND SOUTH CENTRAL VIRGINIA

CITY           SKY/WX    TMP DP  RH WIND       PRES   REMARKS
RICHMOND       MOCLDY    33  27  78 S9        30.07F
CHESTERFIELD*  NOT AVBL
PETERSBURG*    PTCLDY    30  25  80 S3        30.09F
HANOVER        CLOUDY    38  24  57 SW9       30.07F
TAPPAHANNOCK*    N/A    N/A N/A N/A MISG        N/A
QUINTON*       CLOUDY    34  28  78 SW6       30.08F
CHARLOTTSVILLE CLOUDY    35  23  61 S7        30.00F
GORDONSVILLE*  CLOUDY    33  26  76 SW3       30.02F
ORANGE*        CLOUDY    34  27  75 CALM      30.03F
LOUISA*        CLOUDY    33  25  70 S6        30.07F
BUMPASS*       CLOUDY    34  25  68 SW5       30.04F
FARMVILLE*     PTCLDY    34  28  78 SW5       30.05F
CREWE*         FAIR      32  26  76 SW3       30.08F
FORT PICKETT*  NOT AVBL
CHASE CITY*    FAIR      29  27  90 CALM      30.09F
CLARKSVILLE*   FAIR      28  27  93 SW3       30.11F
SOUTH HILL*    CLEAR     28  25  90 S6        30.16F
LAWRENCEVILLE* FAIR      28  25  88 SW3       30.10F
EMPORIA*       PTCLDY    28  27  93 CALM      30.13F
$$

VAZ088>098-110700-
SOUTHEAST VIRGINIA

CITY           SKY/WX    TMP DP  RH WIND       PRES   REMARKS
NORFOLK        CLEAR     31  27  85 SW12      30.11F WCI  22
VIRGINIA BEACH CLEAR     31  24  75 S6        30.11F
NORFOLK NAVAL  PTCLDY    35  26  69 SW9       30.12F
WEST POINT*    CLOUDY   N/A N/A N/A S6        30.11S
SALUDA*        CLOUDY    35  28  76 SW6       30.08F
NEWPORT NEWS   CLEAR     33  27  78 SW8       30.11F
LANGLEY AFB    CLEAR     35  28  74 SW8       30.10F
FORT EUSTIS    CLEAR     37  28  70 S6        30.08F
WILLIAMSBURG*  CLEAR     36  27  69 CALM      30.11S
HR EXEC AP*    FAIR      27  26  96 SW5       30.12F
FRANKLIN*      PTCLDY    31  26  81 SW6       30.13S
US460-WAKEFLD  CLEAR     29  27  92 S3        30.11F
$$

VAZ020-022-025-037-045-110700-
WEST CENTRAL AND SOUTHWEST VIRGINIA

CITY           SKY/WX    TMP DP  RH WIND       PRES   REMARKS
STAUNTON*      PTCLDY    32  19  59 S8        30.00F
WAYNESBORO*    MOCLDY    32  17  54 SW6       29.98F
HOT SPRINGS VA CLOUDY    28  13  54 W21G29    29.90S WCI  15
LYNCHBURG      PTCLDY    28  22  78 SW3       30.05F
DANVILLE       CLEAR     28  24  85 S5        30.11F
SOUTH BOSTON*  FAIR      26  24  96 CALM      30.10F
MARTINSVILLE   CLEAR     28  24  85 SW3       30.12F
ROANOKE        CLEAR     35  17  47 W10       30.06F
BLACKSBURG     CLEAR     26  18  72 E3        30.05F
DUBLIN*        CLEAR     30  19  64 W7        30.06S
MARION*        CLEAR     31  17  56 W30G38    30.04F WCI  16
HILLSVILLE*    CLEAR     31  18  57 NW10      30.03S WCI  22
RICHLANDS*     FAIR      31  18  60 SW14G22   30.08S WCI  20
WISE*          CLOUDY    32  23  69 S8        30.09S
ABINGDON*      CLOUDY    30  20  64 W6        30.12F
$$

MDZ021>025-VAZ099-100-110700-
SOUTHERN MARYLAND AND THE DELMARVA PENINSULA

CITY           SKY/WX    TMP DP  RH WIND       PRES   REMARKS
PATUXENT RIVER CLOUDY    36  28  73 SW10      30.06F
BAY BRIDGE APT CLOUDY    37  27  65 SW13      30.06S
LEONARDTOWN    CLOUDY    36  30  80 SW8       30.07S
DOVER          CLOUDY    34  33  95 SW8       30.04F
GEORGETOWN     CLOUDY    34  29  82 SW6       30.06F
EASTON         MOCLDY    37  30  76 SW3       30.09S
CAMBRIDGE      CLOUDY    37  28  70 CALM      30.06F
SALISBURY      CLOUDY    33  30  88 S3        30.06F
OCEAN CITY     CLOUDY    36  31  82 SW6       30.08F
WALLOPS ISLAND CLOUDY    34  31  88 S6        30.08F
ACCOMACK*      CLOUDY    39  28  65 SW7       30.08F
$$

NCZ012>017-030>032-110700-
NORTH CENTRAL AND EASTERN NORTH CAROLINA

CITY           SKY/WX    TMP DP  RH WIND       PRES   REMARKS
ROANOKE RAPIDS FAIR      28  27  93 CALM      30.14S
RALEIGH        CLEAR     28  24  85 W5        30.14F
ELIZABETH CITY CLEAR     33  31  92 SW6       30.14F
AHOSKIE*       CLEAR     30  27  86 CALM      30.15R
EDENTON*       CLEAR     40  31  71 SW7       30.16F
CURRITUCK*     CLEAR     31  30  96 CALM      30.14F
KILL DEVIL HLS CLEAR     38  30  73 SW5       30.14F
MANTEO         CLEAR     38  31  76 SW10      30.16F
CAPE HATTERAS  CLEAR     42  29  59 W9        30.18F
TARBORO*       NOT AVBL
GOLDSBORO      CLEAR     34  26  72 SW7       30.15R
WASHINGTON     CLEAR     33  27  76 SW5       30.16F
GREENVILLE     CLEAR     34  28  80 W5        30.18R
NEW BERN       CLEAR     31  28  89 SW3       30.18F
WILMINGTON     CLEAR     37  29  72 SW8       30.20F
$$

VAZ048-110700-
ELSEWHERE

CITY           SKY/WX    TMP DP  RH WIND       PRES   REMARKS
HARRISBURG PA  CLOUDY    35  23  61 S8        29.99F
BALTIMORE      CLOUDY    37  25  61 S9        30.02F
ANNAPOLIS      CLOUDY    37  29  72 W7        30.05S
ANDREWS AFB    CLOUDY    35  25  67 SW5       30.04S
PHILADELPHIA   CLOUDY    35  27  72 SW9       30.04F
HENDERSON NC   CLEAR     26  22  85 CALM      30.12S
GREENSBORO     CLEAR     30  23  75 SW3       30.10F
ROCKY MOUNT    CLEAR     31  27  85 S3        30.16R
$$

VAZ100-110700-
MARINE

STATION/POSITION TIME  TEMP    WIND        PRES    WAVE   SWELL
                       AIR SEA DIR/SP/G            HT/PER HT/PER
                 (UTC) (F)     (DEG/KT/KT) (MB)    (FT/S) (FT/S)
BRANDYWINE LGT   0536   39     240/ 22/ 25 1017.8F
CAPE MAY NJ      0548   40 43  250/ 19/ 21 1017.1F
LEWES DE         0548   35 45  230/  6/  9 1017.8F
15NM E FENWICK I 0550   42 54  240/ 19/ 23 1018.3F   4/ 4   2/ 9
OCEAN-CITY-INLET 0548   38 44  250/  7/  9 1018.6F
WACHAPREAGUE VA  0548   36 43  230/  3/  3 1018.7F
THOMAS POINT MD  0600   37 47  270/ 13/ 14   N/A
GOOSES REEF MD   0600   39 48  230/ 16/ 19 1017.9    2/ 3
COVE POINT MD    0548   37     250/ 13/ 19 1018.3F
SOLOMONS ISLAND  0548   38 48  230/ 10/ 12 1017.5F
BISHOPS HEAD MD  0548   41 38  230/ 16/ 21 1018.1F
PINEY POINT MD   0548          250/  8/ 11   N/A
POTOMAC MD       0600   40 49  230/ 16/ 19 1017.4    2/ 3
CAMBRIDGE MD     0536   37 45              1018.5F
LEWISETTA VA     0548   38 44  250/  8/ 12 1018.2F
RAPPAHANNOCK LGT 0548          230/ 18/ 21 1018.9F
STINGRAY PT      0600   39 49  260/ 14/ 16 1018.8    1/ 2
YORK RVR RNG VA  0548   39     240/ 19/ 21 1019.1F
YORKTOWN VA      0548   37 50  210/  6/  9 1018.9F
JAMESTOWN VA     0600      48  210/  8/ 10   N/A     0
DOMINION TERM VA 0548   37     210/  8/ 10 1019.8F
KIPTOPEKE VA     0548      48  240/ 14/ 17   N/A
CAPE HENRY VA    0548   34     200/  8/ 11   N/A
WILLOUBY STN VA  0548   37     220/ 15/ 17 1019.1F
S CRANEY ISL VA  0548   36     210/  7/ 10 1019.6F
CAPE HENRY BUOY  0600      56                N/A     3/ 9
1ST LANDING BUOY 0600   39 50  240/ 16/ 17 1019.2    1/ 3
CAPE CHARLES BUO 0551      54                N/A     2/ 9
64NM E OF VA BCH 0550   46 60  260/ 17/ 21 1020.2F   5/ 5   2/ 9
DUCK PIER NC     0548   42 52  230/ 12/ 15 1020.1F
44100 DUCK FRF   0545      57                N/A     3/ 9
44056 DUCK FRF   0600      54                N/A     2/ 8
OREGON INLET NC  0542   42 48  230/ 15/ 17 1021.2F
HATTERAS NC      0548   42 53  240/  8/ 11 1021.5F
DIAMOND SHLS NC  0600   50 74  260/ 17/ 23 1021.8
CAPE LOOKOUT NC  0600          260/ 12/ 14 1021.9F
$$



USA.gov is the U.S. government's official web portal to all federal, state and local government web resources and services.